Location: Canchy
(50.1869°N, 1.8760°E)
Time: 01:36:45
(UTC+00:00)

Daily predictions for brighter satellites

Satellite Brightness Start Highest point End
(mag) Time Altitude Azimuth Time Altitude Azimuth Time Altitude Azimuth
ACS3 Solar Sail 4.2 03:40:10 10° N 03:40:27 11° N 03:40:27 11° N
SL-16 R/B 4.0 03:46:48 24° NNE 03:47:23 25° NE 03:52:00 10° E
Cosmos 2082 Rocket 3.9 03:49:32 24° SE 03:51:25 29° ESE 03:56:12 10° NE
COSMOS 2455 3.5 03:58:09 53° E 03:58:09 53° E 04:03:11 10° SE
ATLAS 3B R/B 4.1 03:59:03 30° N 03:59:28 30° N 04:06:13 10° ENE
NOSS 3-4 (A) 4.4 04:02:31 35° NNE 04:02:31 35° NNE 04:06:06 10° NE
NOSS 3-4 (C) 4.4 04:02:40 35° NNE 04:02:40 35° NNE 04:06:16 10° NE
Cosmos 1980 Rocket 3.6 04:14:14 28° SSE 04:14:14 28° SSE 04:16:46 10° SSE
Cosmos 2369 4.0 04:16:15 64° E 04:16:15 64° E 04:21:18 10° SE
Aureole 1 Rocket 4.2 04:20:45 59° NNW 04:22:19 84° ENE 04:29:49 10° SSE
COSMO-SKYMED 1 4.3 04:18:49 10° ESE 04:22:19 28° ENE 04:22:50 27° NE
ADEOS Rocket 4.4 04:16:03 10° N 04:20:30 33° NNW 04:20:30 33° NNW
Cosmos 2180 Rocket 4.5 04:23:52 49° N 04:25:41 81° E 04:32:01 10° SSE
Cosmos 1937 Rocket 4.2 04:25:55 47° NE 04:26:28 49° ENE 04:31:26 10° SE
Cosmos 909 Rocket 4.4 04:28:18 56° NNW 04:28:18 56° NNW 04:34:22 10° NE
Cosmos 372 Rocket 4.3 04:33:38 55° SSE 04:33:38 55° SSE 04:37:36 10° SSE
Cosmos 2333 Rocket 3.4 04:33:56 25° N 04:36:33 38° NE 04:41:53 10° ESE
NOSS 3-1 (A) 4.4 04:37:46 36° NNW 04:40:33 55° NE 04:48:47 10° ESE
Cosmos 1606 Rocket 4.0 04:43:12 62° ESE 04:43:12 62° ESE 04:47:12 10° SSE
Cosmos 2360 Rocket 3.7 04:40:11 19° N 04:43:13 30° NE 04:48:10 10° ESE
Cosmos 2142 Rocket 4.3 04:47:05 58° NW 04:48:10 68° W 04:54:18 10° S
Cosmos 540 Rocket 4.3 04:56:48 35° N 04:56:48 35° N 05:00:01 10° NNE
USA 234 3.7 04:49:43 10° ENE 04:55:59 49° N 04:57:47 40° NW
Helios 1A Rocket 3.7 04:53:13 10° SE 04:55:47 40° ESE 04:55:47 40° ESE
SeaSat 1 4.0 04:56:15 10° NNE 04:58:20 21° N 04:58:20 21° N
Cosmos 2219 Rocket 3.9 04:58:08 14° N 05:02:00 28° NE 05:06:48 10° E
SL-4 R/B 2.9 05:03:15 35° ENE 05:03:15 35° ENE 05:05:18 10° E
ATLAS 5 CENTAUR R/B 3.5 05:05:56 13° NNE 05:05:56 13° NNE 05:06:30 10° NNE
Cosmos 2322 Rocket 3.2 05:01:43 20° NNW 05:05:26 44° NE 05:10:52 10° SE
Cosmos 1726 Rocket 3.4 05:08:06 48° N 05:09:17 87° E 05:13:32 10° S
Meteor 2-3 Rocket 4.1 05:05:39 10° S 05:11:20 67° E 05:16:58 10° NNE
CZ-4 R/B 3.7 05:10:23 10° NNE 05:15:03 82° ESE 05:19:40 10° SSW
Nadezhda 4 Rocket 3.9 05:10:03 10° SSW 05:16:21 77° W 05:22:40 10° N
NOSS 2-1 (D) 4.0 05:17:47 39° SSW 05:17:47 39° SSW 05:21:28 10° SSE
Cosmos 1428 Rocket 4.4 05:11:13 10° S 05:17:27 88° W 05:23:47 10° N
Cosmos 2237 4.2 05:15:45 42° NW 05:17:32 63° WSW 05:23:08 10° SSE
CZ-2C R/B 4.1 05:14:29 10° N 05:16:11 19° NNW 05:16:11 19° NNW
USA 59 Rocket 0.7 05:20:26 35° SSW 05:20:26 35° SSW 05:24:08 10° SSE
Cosmos 841 Rocket 3.4 05:18:01 10° SSW 05:23:15 85° WNW 05:28:33 10° NNE
COSMOS 2406 3.3 05:18:07 10° SSW 05:23:46 77° ESE 05:29:28 10° NNE
NOSS 2-1 (E) 3.7 05:25:12 44° SW 05:25:12 44° SW 05:29:21 10° SSE
NOSS 3-1 (C) 4.0 05:21:26 32° WNW 05:25:08 65° SW 05:33:47 10° SSE
Cosmos 1833 Rocket 4.0 05:28:01 21° NNW 05:28:01 21° NNW 05:31:36 10° NNE
Cosmos 1892 Rocket 3.5 05:25:54 10° S 05:30:15 86° ESE 05:34:42 10° N
Cosmos 2195 Rocket 4.4 05:24:30 10° S 05:30:47 87° W 05:37:09 10° N
SL-16 R/B 2.1 05:28:40 25° NNW 05:32:09 82° WSW 05:37:49 10° SSE
Cosmos 2082 Rocket 2.2 05:31:29 21° SW 05:35:11 55° NW 05:40:44 10° NNE
IRS-1D 3.5 05:37:19 10° N 05:42:11 54° WNW 05:47:06 10° SW
COSMOS 2455 3.5 05:41:19 29° W 05:42:55 33° WSW 05:48:11 10° S
Cosmos 1898 Rocket 4.2 05:42:42 31° W 05:43:33 32° WSW 05:48:11 10° SSW
NOSS 2-1 (C) 4.4 05:44:49 27° WSW 05:45:02 27° SW 05:48:53 10° S
Meteor 2-20 4.4 05:38:58 10° NNW 05:45:03 69° W 05:51:04 10° S
Orbus 7S? 2.8 05:47:32 45° NNW 05:48:05 57° NNE 05:50:45 10° ESE
Cosmos 405 Rocket 4.2 05:46:00 10° SSE 05:48:57 32° E 05:51:54 10° NNE
NOSS 3-4 (A) 4.4 05:49:57 22° NW 05:52:05 27° NNW 05:57:29 10° NE
NOSS 3-4 (C) 4.4 05:50:06 22° NW 05:52:15 27° NNW 05:57:38 10° NE
ATLAS 3B R/B 3.9 05:46:18 15° NW 05:52:21 41° NNE 05:59:32 10° E
Cosmos-2242 2.8 05:49:30 11° NNW 05:53:40 73° W 05:57:50 10° S
Cosmos 1980 Rocket 4.0 05:56:02 12° WSW 05:56:02 12° WSW 05:57:03 10° SW
Cosmos 2278 3.7 05:51:02 18° NW 05:55:14 64° WSW 06:00:48 10° SSE
COSMO-SKYMED 1 3.1 05:53:47 10° SSW 05:57:32 34° W 05:59:09 25° NW
Cosmos 2058 Rocket 3.1 05:56:25 10° NNW 06:00:48 58° W 06:05:08 10° S
Cosmos 1484 Rocket 2.3 05:57:26 10° N 06:00:52 75° WNW 06:04:15 10° SSW
Cosmos 1627 Rocket 4.4 05:57:17 10° SSW 06:03:19 64° WNW 06:09:27 10° N
Meteor 2-2 Rocket 4.2 05:58:26 10° NNW 06:04:02 63° W 06:09:43 10° S
Cosmos 1346 Rocket 4.4 06:07:59 16° NNW 06:07:59 16° NNW 06:09:14 10° NNW
Okean 1 3.0 06:03:39 14° NNW 06:06:35 56° W 06:10:03 10° S
Meteor 2-20 Rocket 4.3 06:01:31 10° NNW 06:07:15 64° W 06:12:52 10° S
Cosmos 1937 Rocket 4.4 06:06:02 21° WNW 06:08:04 27° W 06:12:19 10° SSW
Cosmos 220 Rocket 4.4 06:05:05 10° SW 06:08:51 35° WNW 06:12:40 10° N
SL-16 R/B 4.5 06:09:11 10° N 06:10:31 11° NNE 06:11:52 10° NNE
ARIANE 5 R/B 3.7 06:07:54 10° NNE 06:12:56 46° E 06:17:56 10° S
Cosmos 2285 Rocket 4.0 06:06:50 10° NNW 06:13:15 85° WSW 06:19:39 10° SSE
ATLAS 2AS CENTAUR R/B 4.5 06:09:03 10° S 06:15:19 35° ESE 06:21:27 10° NE
SL-08 ROCKET BODY 4.5 06:10:55 10° S 06:16:46 80° E 06:22:38 10° NNE
IRIDIUM 104 4.3 06:13:24 10° S 06:18:37 83° W 06:23:53 10° N
Cosmos 2333 Rocket 2.5 06:15:59 12° NW 06:21:01 48° WSW 06:26:30 10° S
SAR-Lupe-4 4.4 06:19:45 10° NNE 06:23:15 53° ESE 06:26:43 10° S
SMAP 3.2 06:19:32 10° NNE 06:24:14 79° ESE 06:28:53 10° SSW
Cosmos 2360 Rocket 2.3 06:22:02 10° NW 06:27:36 61° WSW 06:33:06 10° SSE
IRIDIUM 114 4.3 06:22:34 10° SSW 06:27:46 70° W 06:33:00 10° N
Helios 1A Rocket 4.3 06:27:32 10° WSW 06:29:17 14° W 06:29:20 14° W
Landsat 7 4.0 06:25:30 10° NNE 06:30:11 74° ESE 06:34:50 10° S
NOSS 3-1 (A) 4.3 06:25:10 12° NW 06:31:41 55° SW 06:40:14 10° SSE
CBERS-1 4.0 06:27:50 10° N 06:32:53 62° WNW 06:37:54 10° SSW
Cosmos 2026 Rocket 4.4 06:27:23 10° SW 06:32:59 39° WNW 06:38:41 10° N
IGS 5A 3.7 06:29:56 10° N 06:33:44 43° WNW 06:37:32 10° SW
Cosmos 1814 Rocket 4.0 06:29:13 10° SSW 06:34:27 83° WNW 06:39:47 10° NNE
BREEZE-M DEB (TANK) 3.1 06:34:37 13° WSW 06:35:57 26° SSW 06:38:09 10° SE
Cosmos 2237 Rocket 3.9 06:31:37 10° NNW 06:36:11 24° NE 06:40:44 10° E
IRIDIUM 103 4.4 06:31:49 10° SSW 06:36:58 59° W 06:42:09 10° N
USA 234 3.5 06:32:03 10° E 06:38:32 65° NNE 06:45:01 10° WNW
SL-4 R/B 1.5 06:36:58 13° WNW 06:39:43 66° SSW 06:42:52 10° ESE
Cosmos 1758 Rocket 3.5 06:36:26 10° SSW 06:40:49 65° WNW 06:45:13 10° N
Cosmos 1733 2.2 06:39:57 10° SW 06:41:38 29° WNW 06:43:20 10° N
Cosmos 1743 2.1 06:38:39 10° SSW 06:41:52 76° W 06:45:09 10° N
IRS-1C 4.4 06:36:48 10° NNE 06:42:10 76° ESE 06:47:29 10° S
Thor Agena Rocket 3.5 06:40:21 10° NNE 06:45:24 69° WNW 06:50:24 10° SSW
BREEZE-M DEB (TANK) 3.3 06:42:59 10° W 06:45:48 81° S 06:53:43 10° E
Cosmos 2219 Rocket 2.2 06:40:49 10° NNW 06:46:29 71° WSW 06:52:05 10° SSE
Cosmos 192 4.3 06:41:52 10° NNW 06:46:50 79° WSW 06:51:43 10° SSE
ATLAS 5 CENTAUR R/B 3.2 06:46:08 10° NNW 06:47:19 11° N 06:48:34 10° NNE
Cosmos 2322 Rocket 2.8 06:44:11 10° NW 06:49:26 38° WSW 06:54:37 10° S
S3M 4.0 06:43:55 10° N 06:50:10 86° W 06:56:19 10° S
Cosmos 1553 Rocket 4.4 06:46:43 10° NNW 06:52:41 44° W 06:58:40 10° SSW
USA 229 4.3 06:47:53 10° NW 06:55:06 66° NE 07:03:07 10° ESE
USA 229 DEB 4.3 06:47:58 10° NW 06:55:11 66° NE 07:03:12 10° ESE
Cosmos 2322 4.1 06:49:39 10° NNW 06:55:18 64° ENE 07:00:55 10° SE
SJ-12 3.7 06:53:47 10° N 06:57:34 63° WNW 07:01:20 10° SSW
SKYMED 3 4.4 06:54:57 10° SSE 06:58:58 84° WSW 07:02:59 10° NNW
Resurs 01 Rocket 4.4 06:56:02 10° NE 06:59:23 21° E 07:02:42 10° SE
YAOGAN 1 3.9 06:56:23 10° NNE 07:00:31 45° E 07:04:36 10° S
BREEZE-M DEB (TANK) 4.5 06:58:11 10° W 07:01:36 36° S 07:10:19 10° SE
Cosmos 2221 2.7 06:57:45 10° NNW 07:01:44 46° W 07:05:40 10° SSW
Cosmos 1626 Rocket 4.2 07:00:58 10° SW 07:04:59 33° WNW 07:09:00 10° N
MOS 1 Rocket 3.6 07:00:07 10° N 07:05:29 72° WNW 07:10:46 10° SSW
Cosmos 2151 2.9 07:01:47 10° SSW 07:05:48 57° WNW 07:09:51 10° N
